| time (UTC) | temp C | wind direction | speed KPH | gust KPH | rain 1hr cm | rain 24hr cm | rain mn cm | humidity % | barometer mb |
| 20260502190032 | 18 | 351 | 17.7 | 0.0 | 0.00 | 0.00 | 0.00 | 33 | 1013.3 |
| 20260502185527 | 18 | 351 | 17.7 | 0.0 | 0.00 | 0.00 | 0.00 | 33 | 1013.3 |
| 20260502185028 | 19 | 322 | 17.7 | 0.0 | 0.00 | 0.00 | 0.00 | 34 | 1013.4 |
| 20260502184533 | 19 | 336 | 17.7 | 0.0 | 0.00 | 0.00 | 0.00 | 33 | 1013.3 |
| 20260502184028 | 19 | 351 | 14.5 | 0.0 | 0.00 | 0.00 | 0.00 | 34 | 1013.3 |
| 20260502183527 | 18 | 344 | 14.5 | 0.0 | 0.00 | 0.00 | 0.00 | 35 | 1013.3 |
| 20260502183027 | 18 | 321 | 16.1 | 0.0 | 0.00 | 0.00 | 0.00 | 36 | 1013.4 |
| 20260502182529 | 18 | 24 | 16.1 | 0.0 | 0.00 | 0.00 | 0.00 | 35 | 1013.5 |
| 20260502182026 | 18 | 323 | 14.5 | 0.0 | 0.00 | 0.00 | 0.00 | 35 | 1013.4 |
| 20260502181526 | 18 | 360 | 14.5 | 0.0 | 0.00 | 0.00 | 0.00 | 36 | 1013.4 |
| 20260502181026 | 18 | 297 | 17.7 | 0.0 | 0.00 | 0.00 | 0.00 | 35 | 1013.5 |
| 20260502180526 | 18 | 343 | 16.1 | 0.0 | 0.00 | 0.00 | 0.00 | 35 | 1013.4 |
| 20260502164025 | 17 | 351 | 17.7 | 0.0 | 0.00 | 0.00 | 0.00 | 37 | 1013.3 |
| 20260502163525 | 17 | 337 | 17.7 | 0.0 | 0.00 | 0.00 | 0.00 | 37 | 1013.3 |
| 20260502163030 | 17 | 348 | 16.1 | 0.0 | 0.00 | 0.00 | 0.00 | 37 | 1013.3 |
| 20260502162527 | 18 | 346 | 12.9 | 0.0 | 0.00 | 0.00 | 0.00 | 37 | 1013.3 |
| 20260502162025 | 17 | 351 | 12.9 | 0.0 | 0.00 | 0.00 | 0.00 | 37 | 1013.1 |
| 20260502161524 | 17 | 360 | 14.5 | 0.0 | 0.00 | 0.00 | 0.00 | 40 | 1013.2 |
| 20260502161027 | 17 | 339 | 12.9 | 0.0 | 0.00 | 0.00 | 0.00 | 40 | 1013.1 |
| 20260502160528 | 17 | 339 | 11.3 | 0.0 | 0.00 | 0.00 | 0.00 | 40 | 1013.1 |
| 20260502152016 | -17 | 0.0 | 0.0 | 0.00 | 0.00 | 0.00 | 1012.9 | ||
| 20260502151517 | -17 | 0.0 | 0.0 | 0.00 | 0.00 | 0.00 | 1012.8 | ||
| 20260502151016 | 15 | 301 | 9.7 | 0.0 | 0.00 | 0.00 | 0.00 | 45 | 1012.8 |
| 20260502150513 | 15 | 301 | 11.3 | 0.0 | 0.00 | 0.00 | 0.00 | 45 | 1012.7 |
| 20260502130509 | 11 | 301 | 14.5 | 0.0 | 0.00 | 0.00 | 0.00 | 52 | 1012.7 |
| 20260502123507 | 10 | 297 | 11.3 | 0.0 | 0.00 | 0.00 | 0.00 | 51 | 1012.7 |
| 20260502123012 | 11 | 290 | 11.3 | 0.0 | 0.00 | 0.00 | 0.00 | 50 | 1012.7 |
| 20260502122506 | 11 | 294 | 11.3 | 0.0 | 0.00 | 0.00 | 0.00 | 50 | 1012.6 |
| 20260502122006 | 11 | 283 | 11.3 | 0.0 | 0.00 | 0.00 | 0.00 | 49 | 1012.7 |
| 20260502121507 | 11 | 291 | 11.3 | 0.0 | 0.00 | 0.00 | 0.00 | 49 | 1012.7 |
| 20260502121006 | 11 | 280 | 11.3 | 0.0 | 0.00 | 0.00 | 0.00 | 48 | 1012.6 |
| 20260502120506 | 11 | 287 | 9.7 | 0.0 | 0.00 | 0.00 | 0.00 | 48 | 1012.5 |
| 20260502115506 | 10 | 264 | 6.4 | 0.0 | 0.00 | 0.00 | 0.00 | 49 | 1012.4 |
| 20260502115007 | 10 | 265 | 8.0 | 0.0 | 0.00 | 0.00 | 0.00 | 48 | 1012.4 |
| 20260502114506 | 11 | 261 | 9.7 | 0.0 | 0.00 | 0.00 | 0.00 | 48 | 1012.3 |
| 20260502114006 | 11 | 266 | 8.0 | 0.0 | 0.00 | 0.00 | 0.00 | 47 | 1012.2 |
| 20260502113506 | 10 | 277 | 6.4 | 0.0 | 0.00 | 0.00 | 0.00 | 48 | 1012.1 |
| 20260502113005 | 10 | 281 | 8.0 | 0.0 | 0.00 | 0.00 | 0.00 | 48 | 1012.2 |
| 20260502112506 | 10 | 276 | 9.7 | 0.0 | 0.00 | 0.00 | 0.00 | 49 | 1012.2 |
| 20260502112008 | 10 | 266 | 11.3 | 0.0 | 0.00 | 0.00 | 0.00 | 49 | 1012.1 |
| 20260502111505 | 10 | 242 | 12.9 | 0.0 | 0.00 | 0.00 | 0.00 | 50 | 1012.1 |
| 20260502111005 | 10 | 252 | 12.9 | 0.0 | 0.00 | 0.00 | 0.00 | 50 | 1012.1 |
| 20260502110504 | 9 | 244 | 11.3 | 0.0 | 0.00 | 0.00 | 0.00 | 50 | 1012.2 |
| 20260502110013 | 9 | 259 | 11.3 | 0.0 | 0.00 | 0.00 | 0.00 | 50 | 1012.4 |
| 20260502105507 | 9 | 248 | 11.3 | 0.0 | 0.00 | 0.00 | 0.00 | 50 | 1012.4 |
| 20260502105003 | 9 | 258 | 11.3 | 0.0 | 0.00 | 0.00 | 0.00 | 49 | 1012.6 |
| 20260502104503 | 9 | 265 | 11.3 | 0.0 | 0.00 | 0.00 | 0.00 | 48 | 1012.5 |
| 20260502104003 | 9 | 257 | 11.3 | 0.0 | 0.00 | 0.00 | 0.00 | 48 | 1012.4 |
| 20260502103507 | 9 | 260 | 11.3 | 0.0 | 0.00 | 0.00 | 0.00 | 48 | 1012.4 |
| 20260502103002 | 9 | 252 | 11.3 | 0.0 | 0.00 | 0.00 | 0.00 | 48 | 1012.4 |
| 20260502102502 | 10 | 279 | 12.9 | 0.0 | 0.00 | 0.00 | 0.00 | 47 | 1012.2 |
| 20260502102002 | 10 | 254 | 14.5 | 0.0 | 0.00 | 0.00 | 0.00 | 46 | 1012.4 |
| 20260502101500 | 10 | 244 | 14.5 | 0.0 | 0.00 | 0.00 | 0.00 | 45 | 1012.2 |
| 20260502101100 | 10 | 227 | 14.5 | 0.0 | 0.00 | 0.00 | 0.00 | 45 | 1012.2 |
| 20260502100600 | 10 | 242 | 11.3 | 0.0 | 0.00 | 0.00 | 0.00 | 45 | 1012.3 |
| 20260502100112 | 10 | 231 | 11.3 | 0.0 | 0.00 | 0.00 | 0.00 | 45 | 1012.2 |
| 20260502091053 | 9 | 238 | 8.0 | 0.0 | 0.00 | 0.00 | 0.00 | 46 | 1012.7 |
| 20260502090557 | 9 | 232 | 6.4 | 0.0 | 0.00 | 0.00 | 0.00 | 46 | 1012.7 |
| 20260502071044 | 9 | 180 | 4.8 | 0.0 | 0.00 | 0.00 | 0.00 | 43 | 1013.9 |
| 20260502070544 | 9 | 175 | 4.8 | 0.0 | 0.00 | 0.00 | 0.00 | 42 | 1013.9 |
| 20260502070047 | 9 | 209 | 4.8 | 0.0 | 0.00 | 0.00 | 0.00 | 42 | 1013.9 |
| 20260502065042 | 9 | 202 | 4.8 | 0.0 | 0.00 | 0.00 | 0.00 | 41 | 1014.1 |
| 20260502064612 | 9 | 205 | 6.4 | 0.0 | 0.00 | 0.00 | 0.00 | 41 | 1014.2 |
| 20260502064042 | 9 | 202 | 6.4 | 0.0 | 0.00 | 0.00 | 0.00 | 41 | 1014.2 |
| 20260502063542 | 9 | 206 | 6.4 | 0.0 | 0.00 | 0.00 | 0.00 | 42 | 1014.2 |
| 20260502063052 | 8 | 179 | 6.4 | 0.0 | 0.00 | 0.00 | 0.00 | 42 | 1014.2 |
| 20260502062540 | 8 | 179 | 6.4 | 0.0 | 0.00 | 0.00 | 0.00 | 41 | 1014.3 |
| 20260502062040 | 8 | 173 | 4.8 | 0.0 | 0.00 | 0.00 | 0.00 | 41 | 1014.4 |
| 20260502061542 | 8 | 187 | 3.2 | 0.0 | 0.00 | 0.00 | 0.00 | 42 | 1014.5 |
| 20260502061040 | 8 | 196 | 3.2 | 0.0 | 0.00 | 0.00 | 0.00 | 42 | 1014.5 |
| 20260502060542 | 8 | 193 | 1.6 | 0.0 | 0.00 | 0.00 | 0.00 | 41 | 1014.6 |
| 20260502060044 | 8 | 207 | 3.2 | 0.0 | 0.00 | 0.00 | 0.00 | 40 | 1014.7 |
| 20260502055037 | 9 | 221 | 4.8 | 0.0 | 0.00 | 0.00 | 0.00 | 39 | 1014.8 |
| 20260502054538 | 9 | 195 | 6.4 | 0.0 | 0.00 | 0.00 | 0.00 | 39 | 1014.8 |
| 20260502054037 | 10 | 204 | 8.0 | 0.0 | 0.00 | 0.00 | 0.00 | 39 | 1014.8 |
| 20260502053536 | 10 | 196 | 8.0 | 0.0 | 0.00 | 0.00 | 0.00 | 39 | 1014.8 |
| 20260502053036 | 9 | 211 | 8.0 | 0.0 | 0.00 | 0.00 | 0.00 | 38 | 1014.9 |
| 20260502052537 | 9 | 210 | 8.0 | 0.0 | 0.00 | 0.00 | 0.00 | 38 | 1015.0 |
| 20260502052035 | 9 | 206 | 8.0 | 0.0 | 0.00 | 0.00 | 0.00 | 38 | 1015.0 |
| 20260502051535 | 9 | 202 | 8.0 | 0.0 | 0.00 | 0.00 | 0.00 | 38 | 1015.1 |
| 20260502051035 | 9 | 207 | 6.4 | 0.0 | 0.00 | 0.00 | 0.00 | 39 | 1015.2 |
| 20260502050534 | 8 | 231 | 6.4 | 0.0 | 0.00 | 0.00 | 0.00 | 40 | 1015.2 |
| 20260502050034 | 8 | 205 | 8.0 | 0.0 | 0.00 | 0.00 | 0.00 | 40 | 1015.2 |
| 20260502045031 | 8 | 209 | 8.0 | 0.0 | 0.00 | 0.00 | 0.00 | 41 | 1015.4 |
| 20260502044532 | 8 | 220 | 6.4 | 0.0 | 0.00 | 0.00 | 0.00 | 41 | 1015.4 |
| 20260502044031 | 8 | 215 | 6.4 | 0.0 | 0.00 | 0.00 | 0.00 | 42 | 1015.4 |
| 20260502043531 | 7 | 215 | 6.4 | 0.0 | 0.00 | 0.00 | 0.00 | 42 | 1015.5 |
| 20260502043034 | 8 | 214 | 6.4 | 0.0 | 0.00 | 0.00 | 0.00 | 42 | 1015.5 |
| 20260502042530 | 8 | 209 | 6.4 | 0.0 | 0.00 | 0.00 | 0.00 | 41 | 1015.6 |
| 20260502042029 | 8 | 204 | 6.4 | 0.0 | 0.00 | 0.00 | 0.00 | 41 | 1015.7 |
| 20260502041534 | 8 | 200 | 6.4 | 0.0 | 0.00 | 0.00 | 0.00 | 41 | 1015.8 |
| 20260502041027 | 7 | 198 | 6.4 | 0.0 | 0.00 | 0.00 | 0.00 | 42 | 1015.8 |
| 20260502040531 | 7 | 205 | 4.8 | 0.0 | 0.00 | 0.00 | 0.00 | 42 | 1015.8 |
| 20260502040027 | 7 | 206 | 3.2 | 0.0 | 0.00 | 0.00 | 0.00 | 42 | 1015.8 |
| 20260502035028 | 7 | 214 | 4.8 | 0.0 | 0.00 | 0.00 | 0.00 | 42 | 1016.0 |
| 20260502034526 | 7 | 207 | 6.4 | 0.0 | 0.00 | 0.00 | 0.00 | 42 | 1016.1 |
| 20260502034027 | 7 | 209 | 6.4 | 0.0 | 0.00 | 0.00 | 0.00 | 42 | 1016.1 |
| 20260502033527 | 7 | 212 | 4.8 | 0.0 | 0.00 | 0.00 | 0.00 | 41 | 1016.1 |
| 20260502033029 | 7 | 210 | 4.8 | 0.0 | 0.00 | 0.00 | 0.00 | 41 | 1016.2 |
| 20260502032525 | 7 | 209 | 4.8 | 0.0 | 0.00 | 0.00 | 0.00 | 41 | 1016.2 |
| 20260502032024 | 7 | 220 | 4.8 | 0.0 | 0.00 | 0.00 | 0.00 | 40 | 1016.3 |
| 20260502031523 | 8 | 221 | 4.8 | 0.0 | 0.00 | 0.00 | 0.00 | 40 | 1016.3 |
| 20260502031022 | 8 | 221 | 4.8 | 0.0 | 0.00 | 0.00 | 0.00 | 39 | 1016.4 |
| 20260502030521 | 8 | 219 | 4.8 | 0.0 | 0.00 | 0.00 | 0.00 | 39 | 1016.3 |
| 20260502030021 | 8 | 214 | 4.8 | 0.0 | 0.00 | 0.00 | 0.00 | 38 | 1016.3 |
| 20260502025023 | 8 | 214 | 4.8 | 0.0 | 0.00 | 0.00 | 0.00 | 39 | 1016.3 |
| 20260502024519 | 8 | 214 | 4.8 | 0.0 | 0.00 | 0.00 | 0.00 | 38 | 1016.3 |
| 20260502024017 | 9 | 214 | 4.8 | 0.0 | 0.00 | 0.00 | 0.00 | 36 | 1016.2 |
| 20260502023516 | 10 | 213 | 4.8 | 0.0 | 0.00 | 0.00 | 0.00 | 36 | 1016.2 |
| 20260502023014 | 10 | 212 | 4.8 | 0.0 | 0.00 | 0.00 | 0.00 | 35 | 1016.2 |
| 20260502022514 | 10 | 211 | 4.8 | 0.0 | 0.00 | 0.00 | 0.00 | 34 | 1016.2 |
| 20260502022015 | 11 | 211 | 3.2 | 0.0 | 0.00 | 0.00 | 0.00 | 34 | 1016.2 |
| 20260502021510 | 11 | 211 | 1.6 | 0.0 | 0.00 | 0.00 | 0.00 | 33 | 1016.2 |
| 20260502021009 | 11 | 211 | 3.2 | 0.0 | 0.00 | 0.00 | 0.00 | 33 | 1016.2 |
| 20260502020508 | 12 | 211 | 3.2 | 0.0 | 0.00 | 0.00 | 0.00 | 32 | 1016.2 |
| 20260502020006 | 12 | 211 | 3.2 | 0.0 | 0.00 | 0.00 | 0.00 | 31 | 1016.2 |
| 20260502015005 | 14 | 209 | 4.8 | 0.0 | 0.00 | 0.00 | 0.00 | 29 | 1016.3 |
| 20260502014504 | 15 | 203 | 4.8 | 0.0 | 0.00 | 0.00 | 0.00 | 28 | 1016.3 |
| 20260502014002 | 15 | 210 | 6.4 | 0.0 | 0.00 | 0.00 | 0.00 | 27 | 1016.3 |
| 20260502013500 | 16 | 217 | 4.8 | 0.0 | 0.00 | 0.00 | 0.00 | 27 | 1016.3 |
| 20260502013101 | 16 | 213 | 4.8 | 0.0 | 0.00 | 0.00 | 0.00 | 26 | 1016.4 |
| 20260502012558 | 16 | 214 | 4.8 | 0.0 | 0.00 | 0.00 | 0.00 | 25 | 1016.4 |
| 20260502012059 | 17 | 220 | 4.8 | 0.0 | 0.00 | 0.00 | 0.00 | 25 | 1016.3 |
| 20260502011602 | 17 | 219 | 6.4 | 0.0 | 0.00 | 0.00 | 0.00 | 23 | 1016.4 |
| 20260502011055 | 17 | 222 | 8.0 | 0.0 | 0.00 | 0.00 | 0.00 | 24 | 1016.5 |
| 20260502010552 | 17 | 146 | 8.0 | 0.0 | 0.00 | 0.00 | 0.00 | 23 | 1016.5 |
| 20260502010104 | 18 | 221 | 9.7 | 0.0 | 0.00 | 0.00 | 0.00 | 23 | 1016.6 |
| 20260502005051 | 18 | 210 | 9.7 | 0.0 | 0.00 | 0.00 | 0.00 | 22 | 1016.6 |
| 20260502004550 | 18 | 229 | 8.0 | 0.0 | 0.00 | 0.00 | 0.00 | 22 | 1016.7 |
| 20260502004048 | 18 | 226 | 8.0 | 0.0 | 0.00 | 0.00 | 0.00 | 22 | 1016.8 |
| 20260502003548 | 18 | 238 | 8.0 | 0.0 | 0.00 | 0.00 | 0.00 | 22 | 1016.8 |
| 20260502003048 | 18 | 230 | 8.0 | 0.0 | 0.00 | 0.00 | 0.00 | 22 | 1016.8 |
| 20260502002547 | 18 | 207 | 8.0 | 0.0 | 0.00 | 0.00 | 0.00 | 22 | 1016.8 |
| 20260502002046 | 18 | 235 | 8.0 | 0.0 | 0.00 | 0.00 | 0.00 | 21 | 1016.8 |
| 20260502001546 | 18 | 223 | 9.7 | 0.0 | 0.00 | 0.00 | 0.00 | 22 | 1016.8 |
| 20260502001045 | 18 | 221 | 8.0 | 0.0 | 0.00 | 0.00 | 0.00 | 22 | 1016.9 |
| 20260502000546 | 18 | 235 | 9.7 | 0.0 | 0.00 | 0.00 | 0.00 | 22 | 1016.9 |
| 20260502000045 | 18 | 227 | 11.3 | 0.0 | 0.00 | 0.00 | 0.00 | 23 | 1016.9 |
| 20260501235044 | 18 | 221 | 9.7 | 0.0 | 0.00 | 0.00 | 0.00 | 23 | 1016.9 |
| 20260501234544 | 19 | 177 | 9.7 | 0.0 | 0.00 | 0.00 | 0.00 | 22 | 1016.9 |
| 20260501234045 | 19 | 210 | 8.0 | 0.0 | 0.00 | 0.00 | 0.00 | 23 | 1017.0 |
| 20260501233546 | 19 | 205 | 6.4 | 0.0 | 0.00 | 0.00 | 0.00 | 24 | 1017.0 |
| 20260501233043 | 19 | 204 | 6.4 | 0.0 | 0.00 | 0.00 | 0.00 | 22 | 1017.1 |
| 20260501232542 | 19 | 202 | 8.0 | 0.0 | 0.00 | 0.00 | 0.00 | 23 | 1017.0 |
| 20260501232045 | 19 | 180 | 6.4 | 0.0 | 0.00 | 0.00 | 0.00 | 23 | 1017.1 |
| 20260501231541 | 19 | 205 | 8.0 | 0.0 | 0.00 | 0.00 | 0.00 | 22 | 1017.1 |
| 20260501231041 | 19 | 196 | 8.0 | 0.0 | 0.00 | 0.00 | 0.00 | 22 | 1017.2 |
| 20260501230541 | 19 | 218 | 6.4 | 0.0 | 0.00 | 0.00 | 0.00 | 23 | 1017.2 |
| 20260501230041 | 18 | 242 | 8.0 | 0.0 | 0.00 | 0.00 | 0.00 | 22 | 1017.2 |
| 20260501225040 | 19 | 228 | 6.4 | 0.0 | 0.00 | 0.00 | 0.00 | 22 | 1017.0 |
| 20260501224541 | 19 | 205 | 6.4 | 0.0 | 0.00 | 0.00 | 0.00 | 23 | 1017.4 |
| 20260501224039 | 19 | 157 | 6.4 | 0.0 | 0.00 | 0.00 | 0.00 | 24 | 1017.5 |
| 20260501223539 | 19 | 220 | 9.7 | 0.0 | 0.00 | 0.00 | 0.00 | 23 | 1017.5 |
| 20260501223038 | 19 | 175 | 9.7 | 0.0 | 0.00 | 0.00 | 0.00 | 24 | 1017.6 |
| 20260501222538 | 18 | 175 | 9.7 | 0.0 | 0.00 | 0.00 | 0.00 | 23 | 1017.5 |
| 20260501222037 | 18 | 251 | 8.0 | 0.0 | 0.00 | 0.00 | 0.00 | 23 | 1017.7 |
| 20260501221537 | 19 | 153 | 6.4 | 0.0 | 0.00 | 0.00 | 0.00 | 25 | 1017.7 |
| 20260501221035 | 18 | 226 | 6.4 | 0.0 | 0.00 | 0.00 | 0.00 | 24 | 1017.8 |
| 20260501220538 | 18 | 233 | 22.5 | 0.0 | 0.00 | 0.00 | 0.00 | 24 | 1017.9 |
| 20260501220038 | 18 | 233 | 9.7 | 0.0 | 0.00 | 0.00 | 0.00 | 24 | 1018.0 |
| 20260501215034 | 18 | 267 | 9.7 | 0.0 | 0.00 | 0.00 | 0.00 | 23 | 1018.2 |
| 20260501214535 | 18 | 267 | 8.0 | 0.0 | 0.00 | 0.00 | 0.00 | 24 | 1018.2 |
| 20260501214032 | 18 | 217 | 8.0 | 0.0 | 0.00 | 0.00 | 0.00 | 25 | 1018.3 |
| 20260501213532 | 18 | 190 | 11.3 | 0.0 | 0.00 | 0.00 | 0.00 | 23 | 1018.3 |
| 20260501213036 | 18 | 158 | 9.7 | 0.0 | 0.00 | 0.00 | 0.00 | 25 | 1018.3 |
| 20260501212530 | 18 | 173 | 8.0 | 0.0 | 0.00 | 0.00 | 0.00 | 26 | 1018.3 |
| 20260501212029 | 18 | 223 | 6.4 | 0.0 | 0.00 | 0.00 | 0.00 | 23 | 1018.5 |
| 20260501211532 | 18 | 208 | 8.0 | 0.0 | 0.00 | 0.00 | 0.00 | 23 | 1018.5 |
| 20260501211028 | 18 | 217 | 6.4 | 0.0 | 0.00 | 0.00 | 0.00 | 25 | 1018.6 |
| 20260501210529 | 17 | 155 | 9.7 | 0.0 | 0.00 | 0.00 | 0.00 | 24 | 1018.6 |
| 20260501210027 | 17 | 155 | 11.3 | 0.0 | 0.00 | 0.00 | 0.00 | 24 | 1018.6 |
| 20260501205027 | 17 | 153 | 12.9 | 0.0 | 0.00 | 0.00 | 0.00 | 25 | 1018.7 |
| 20260501204540 | 17 | 171 | 12.9 | 0.0 | 0.00 | 0.00 | 0.00 | 25 | 1018.8 |
| 20260501204026 | 17 | 101 | 9.7 | 0.0 | 0.00 | 0.00 | 0.00 | 25 | 1018.8 |
| 20260501203525 | 17 | 136 | 9.7 | 0.0 | 0.00 | 0.00 | 0.00 | 25 | 1018.8 |
| 20260501203026 | 17 | 161 | 11.3 | 0.0 | 0.00 | 0.00 | 0.00 | 26 | 1019.0 |
| 20260501202524 | 17 | 130 | 8.0 | 0.0 | 0.00 | 0.00 | 0.00 | 27 | 1018.9 |
| 20260501202025 | 17 | 156 | 6.4 | 0.0 | 0.00 | 0.00 | 0.00 | 26 | 1019.0 |
| 20260501201523 | 17 | 248 | 4.8 | 0.0 | 0.00 | 0.00 | 0.00 | 26 | 1019.0 |
| 20260501201022 | 17 | 284 | 6.4 | 0.0 | 0.00 | 0.00 | 0.00 | 25 | 1019.1 |
| 20260501200522 | 17 | 212 | 9.7 | 0.0 | 0.00 | 0.00 | 0.00 | 26 | 1019.2 |
| 20260501200021 | 17 | 197 | 9.7 | 0.0 | 0.00 | 0.00 | 0.00 | 28 | 1019.3 |
| 20260501195021 | 17 | 142 | 9.7 | 0.0 | 0.00 | 0.00 | 0.00 | 27 | 1019.3 |
| 20260501194525 | 17 | 137 | 8.0 | 0.0 | 0.00 | 0.00 | 0.00 | 28 | 1019.4 |
| 20260501194020 | 17 | 207 | 8.0 | 0.0 | 0.00 | 0.00 | 0.00 | 27 | 1019.3 |
| 20260501193520 | 17 | 134 | 8.0 | 0.0 | 0.00 | 0.00 | 0.00 | 26 | 1019.2 |
| 20260501193019 | 17 | 167 | 9.7 | 0.0 | 0.00 | 0.00 | 0.00 | 28 | 1019.4 |
| 20260501192519 | 17 | 145 | 8.0 | 0.0 | 0.00 | 0.00 | 0.00 | 27 | 1019.4 |
| 20260501192018 | 16 | 111 | 8.0 | 0.0 | 0.00 | 0.00 | 0.00 | 27 | 1019.5 |
| 20260501191523 | 16 | 169 | 9.7 | 0.0 | 0.00 | 0.00 | 0.00 | 30 | 1019.5 |
| 20260501191018 | 16 | 172 | 9.7 | 0.0 | 0.00 | 0.00 | 0.00 | 27 | 1019.6 |
| 20260501190518 | 16 | 262 | 1.6 | 0.0 | 0.00 | 0.00 | 0.00 | 28 | 1019.7 |